,,Stat5,,Stat1,,Stat2,,Stat3,,Stat4,,Wind1,,Wind1,
time,status,PA1M_AVG,status,PR1M_SUM,status,RH1M_AVG,status,SR1M_AVG,status,TA1M_AVG,status,W1dAve1m,status,W1sAve1m,
2000-06-18, 00:00:01,VALID,917.736,VALID,0,VALID,97.7559,VALID,0,VALID,20.5313,VALID,74,VALID,0.441211,
2000-06-18, 00:01:00,VALID,917.741,VALID,0,VALID,97.7495,VALID,0,VALID,20.541,VALID,78,VALID,0.626085,
2000-06-18, 00:02:00,VALID,917.735,VALID,0,VALID,97.6134,VALID,0.0169808,VALID,20.5243,VALID,87,VALID,0.742969,
2000-06-18, 00:03:00,VALID,917.746,VALID,0,VALID,97.5435,VALID,0,VALID,20.5248,VALID,82,VALID,0.567857,
2000-06-18, 00:04:00,VALID,917.751,VALID,0,VALID,97.6071,VALID,0,VALID,20.5373,VALID,88,VALID,0.741186,
2000-06-18, 00:05:00,VALID,917.765,VALID,0,VALID,97.5486,VALID,0,VALID,20.5278,VALID,84,VALID,0.708008,
2000-06-18, 00:06:00,VALID,917.781,VALID,0,VALID,97.4914,VALID,0.0509425,VALID,20.5082,VALID,83,VALID,0.861064,
2000-06-18, 00:07:00,VALID,917.777,VALID,0,VALID,97.5283,VALID,0,VALID,20.5117,VALID,87,VALID,1.00476,
2000-06-18, 00:08:00,VALID,917.78,VALID,0,VALID,97.4952,VALID,-0.0169808,VALID,20.4985,VALID,82,VALID,0.817107,
2000-06-18, 00:09:00,VALID,917.778,VALID,0,VALID,97.5143,VALID,0,VALID,20.492,VALID,84,VALID,0.805088,
2000-06-18, 00:10:00,VALID,917.762,VALID,0,VALID,97.5537,VALID,0,VALID,20.4925,VALID,80,VALID,0.652679,
2000-06-18, 00:11:00,VALID,917.747,VALID,0,VALID,97.5626,VALID,0,VALID,20.4759,VALID,57,VALID,0.913477,
2000-06-18, 00:12:00,VALID,917.723,VALID,0,VALID,97.5715,VALID,-0.0169808,VALID,20.4659,VALID,69,VALID,0.911328,
2000-06-18, 00:13:00,VALID,917.716,VALID,0,VALID,97.5257,VALID,0,VALID,20.4532,VALID,72,VALID,0.954492,
2000-06-18, 00:14:00,VALID,917.708,VALID,0,VALID,97.5969,VALID,0.0169808,VALID,20.4691,VALID,88,VALID,1.05046,
2000-06-18, 00:15:00,VALID,917.703,VALID,0,VALID,97.6834,VALID,0.0339617,VALID,20.4923,VALID,90,VALID,0.888672,
2000-06-18, 00:16:00,VALID,917.699,VALID,0,VALID,97.6541,VALID,0,VALID,20.4791,VALID,75,VALID,0.987054,
2000-06-18, 00:17:00,VALID,917.695,VALID,0,VALID,97.6084,VALID,0,VALID,20.46,VALID,91,VALID,0.798564,
2000-06-18, 00:18:00,VALID,917.696,VALID,0,VALID,97.6046,VALID,0.0169808,VALID,20.45,VALID,78,VALID,1.46854,
2000-06-18, 00:19:00,VALID,917.699,VALID,0,VALID,97.6669,VALID,-0.0169808,VALID,20.4535,VALID,80,VALID,1.20292,
2000-06-18, 00:20:00,VALID,917.706,VALID,0,VALID,97.6898,VALID,0.0169808,VALID,20.4505,VALID,71,VALID,1.10437,
2000-06-18, 00:21:00,VALID,917.697,VALID,0,VALID,97.6656,VALID,0.0169808,VALID,20.4341,VALID,85,VALID,1.28013,
2000-06-18, 00:22:00,VALID,917.684,VALID,0,VALID,97.7533,VALID,0,VALID,20.4244,VALID,94,VALID,0.745066,
2000-06-18, 00:23:00,VALID,917.659,VALID,0,VALID,97.7571,VALID,0,VALID,20.418,VALID,85,VALID,0.808093,
2000-06-18, 00:24:00,VALID,917.632,VALID,0,VALID,97.8538,VALID,0,VALID,20.4311,VALID,93,VALID,0.592188,
2000-06-18, 00:25:00,VALID,917.612,VALID,0,VALID,97.9161,VALID,0.0169808,VALID,20.4336,VALID,53,VALID,0.370144,
2000-06-18, 00:26:00,VALID,917.61,VALID,0,VALID,97.85,VALID,0,VALID,20.4209,VALID,79,VALID,0.859164,
2000-06-18, 00:27:00,VALID,917.591,VALID,0,VALID,97.939,VALID,0.0169808,VALID,20.4371,VALID,80,VALID,1.21593,
2000-06-18, 00:28:00,VALID,917.582,VALID,0,VALID,97.9517,VALID,0,VALID,20.411,VALID,75,VALID,0.637952,
2000-06-18, 00:29:00,VALID,917.558,VALID,0,VALID,97.9415,VALID,0,VALID,20.4078,VALID,67,VALID,0.679102,
2000-06-18, 00:30:00,VALID,917.534,VALID,0,VALID,97.9644,VALID,0,VALID,20.4048,VALID,76,VALID,1.09415,
2000-06-18, 00:31:00,VALID,917.5,VALID,0,VALID,97.9415,VALID,0.0339617,VALID,20.3884,VALID,83,VALID,0.883614,
2000-06-18, 00:32:00,VALID,917.482,VALID,0,VALID,98.0267,VALID,0,VALID,20.4083,VALID,90,VALID,1.14397,
2000-06-18, 00:33:00,VALID,917.472,VALID,0,VALID,98.0318,VALID,0.0169808,VALID,20.3884,VALID,92,VALID,0.963942,
2000-06-18, 00:34:00,VALID,917.475,VALID,0,VALID,98.0649,VALID,0,VALID,20.3849,VALID,89,VALID,0.523232,
2000-06-18, 00:35:00,VALID,917.467,VALID,0,VALID,98.0687,VALID,0,VALID,20.3787,VALID,72,VALID,0.451891,
2000-06-18, 00:36:00,VALID,917.465,VALID,0,VALID,98.0636,VALID,0,VALID,20.3725,VALID,35,VALID,0.525174,
2000-06-18, 00:37:00,VALID,917.457,VALID,0,VALID,98.0611,VALID,0.0169808,VALID,20.366,VALID,52,VALID,0.684896,
2000-06-18, 00:38:00,VALID,917.464,VALID,0,VALID,98.0572,VALID,0,VALID,20.3533,VALID,78,VALID,0.831342,
2000-06-18, 00:39:00,VALID,917.46,VALID,0,VALID,98.0153,VALID,0,VALID,20.3402,VALID,69,VALID,0.452703,
2000-06-18, 00:40:00,VALID,917.464,VALID,0,VALID,97.986,VALID,0,VALID,20.3307,VALID,78,VALID,0.91226,
2000-06-18, 00:41:00,VALID,917.461,VALID,0,VALID,97.9746,VALID,0.0169808,VALID,20.3078,VALID,66,VALID,0.959736,
2000-06-18, 00:42:00,VALID,917.447,VALID,0,VALID,97.9962,VALID,0.0169808,VALID,20.2982,VALID,80,VALID,1.04347,
2000-06-18, 00:43:00,VALID,917.439,VALID,0,VALID,98.0204,VALID,0,VALID,20.3183,VALID,84,VALID,0.948884,
2000-06-18, 00:44:00,VALID,917.429,VALID,0,VALID,98.0038,VALID,0.0169808,VALID,20.2949,VALID,78,VALID,1.1834,
2000-06-18, 00:45:00,VALID,917.41,VALID,0,VALID,97.9937,VALID,0.0169808,VALID,20.3051,VALID,65,VALID,1.49453,
2000-06-18, 00:46:00,VALID,917.39,VALID,0,VALID,97.9606,VALID,0,VALID,20.3049,VALID,88,VALID,1.20098,
2000-06-18, 00:47:00,VALID,917.395,VALID,0,VALID,97.986,VALID,0,VALID,20.3146,VALID,73,VALID,1.06166,
2000-06-18, 00:48:00,VALID,917.367,VALID,0,VALID,97.9377,VALID,0,VALID,20.2947,VALID,93,VALID,1.25282,
2000-06-18, 00:49:00,VALID,917.361,VALID,0,VALID,97.9606,VALID,0,VALID,20.2912,VALID,93,VALID,0.686607,
2000-06-18, 00:50:00,VALID,917.347,VALID,0,VALID,97.9581,VALID,0.0169808,VALID,20.2949,VALID,67,VALID,0.72973,
2000-06-18, 00:51:00,VALID,917.333,VALID,0,VALID,97.8487,VALID,0.0169808,VALID,20.2763,VALID,75,VALID,1.31567,
2000-06-18, 00:52:00,VALID,917.308,VALID,0,VALID,97.869,VALID,0,VALID,20.2795,VALID,91,VALID,0.995192,
2000-06-18, 00:53:00,VALID,917.308,VALID,0,VALID,97.85,VALID,0,VALID,20.2731,VALID,86,VALID,0.876603,
2000-06-18, 00:54:00,VALID,917.299,VALID,0,VALID,97.8474,VALID,0,VALID,20.2696,VALID,93,VALID,1.43884,
2000-06-18, 00:55:00,VALID,917.296,VALID,0,VALID,97.8411,VALID,0,VALID,20.2567,VALID,36,VALID,0.955181,
2000-06-18, 00:56:00,VALID,917.295,VALID,0,VALID,97.883,VALID,0,VALID,20.2591,VALID,78,VALID,0.817909,
2000-06-18, 00:57:00,VALID,917.301,VALID,0,VALID,97.7991,VALID,0,VALID,20.2532,VALID,83,VALID,1.075,
2000-06-18, 00:58:00,VALID,917.287,VALID,0,VALID,97.7432,VALID,0,VALID,20.2567,VALID,92,VALID,1.27365,
2000-06-18, 00:59:00,VALID,917.284,VALID,0,VALID,97.7215,VALID,0,VALID,20.2532,VALID,88,VALID,0.951858,
2000-06-18, 01:00:00,VALID,917.279,VALID,0,VALID,97.6808,VALID,0,VALID,20.2338,VALID,78,VALID,1.10786,
2000-06-18, 01:01:00,VALID,917.254,VALID,0,VALID,97.6834,VALID,0,VALID,20.237,VALID,48,VALID,1.31133,
2000-06-18, 01:02:00,VALID,917.234,VALID,0,VALID,97.6503,VALID,0,VALID,20.2236,VALID,90,VALID,0.958789,
2000-06-18, 01:03:00,VALID,917.209,VALID,0,VALID,97.6134,VALID,0.0339617,VALID,20.2375,VALID,85,VALID,1.16206,
2000-06-18, 01:04:00,VALID,917.196,VALID,0,VALID,97.602,VALID,0.0339617,VALID,20.2335,VALID,61,VALID,0.932292,
2000-06-18, 01:05:00,VALID,917.178,VALID,0,VALID,97.6427,VALID,0.0169808,VALID,20.2435,VALID,89,VALID,0.833036,
2000-06-18, 01:06:00,VALID,917.156,VALID,0,VALID,97.677,VALID,0.0339617,VALID,20.2562,VALID,94,VALID,0.569712,
2000-06-18, 01:07:00,VALID,917.149,VALID,0,VALID,97.5842,VALID,0,VALID,20.2532,VALID,90,VALID,0.651316,
2000-06-18, 01:08:00,VALID,917.13,VALID,0,VALID,97.5562,VALID,0,VALID,20.247,VALID,86,VALID,0.829359,
2000-06-18, 01:09:00,VALID,917.099,VALID,0,VALID,97.5333,VALID,0,VALID,20.2432,VALID,85,VALID,1.16233,
2000-06-18, 01:10:00,VALID,917.081,VALID,0,VALID,97.5079,VALID,-0.0169808,VALID,20.2634,VALID,93,VALID,1.35221,
2000-06-18, 01:11:00,VALID,916.645,VALID,0,VALID,97.4723,VALID,0,VALID,20.2564,VALID,89,VALID,1.20519,
2000-06-18, 01:12:00,VALID,917.07,VALID,0,VALID,97.4558,VALID,-0.0169808,VALID,20.2698,VALID,88,VALID,1.18898,
2000-06-18, 01:13:00,VALID,917.068,VALID,0,VALID,97.3896,VALID,0.0169808,VALID,20.2698,VALID,100,VALID,1.07933,
2000-06-18, 01:14:00,VALID,917.065,VALID,0,VALID,97.3426,VALID,0,VALID,20.2594,VALID,104,VALID,0.902444,
2000-06-18, 01:15:00,VALID,917.07,VALID,0,VALID,97.3134,VALID,0,VALID,20.2559,VALID,95,VALID,0.615785,
2000-06-18, 01:16:00,VALID,917.055,VALID,0,VALID,97.1455,VALID,0,VALID,20.2435,VALID,91,VALID,0.758482,
2000-06-18, 01:17:00,VALID,917.049,VALID,0,VALID,97.1442,VALID,0,VALID,20.237,VALID,100,VALID,0.879102,
2000-06-18, 01:18:00,VALID,917.049,VALID,0,VALID,97.0959,VALID,0,VALID,20.2176,VALID,101,VALID,0.784375,
2000-06-18, 01:19:00,VALID,917.034,VALID,0,VALID,97.0654,VALID,0.0339617,VALID,20.1913,VALID,90,VALID,0.566992,
2000-06-18, 01:20:00,VALID,917.033,VALID,0,VALID,97.1493,VALID,0,VALID,20.1985,VALID,96,VALID,0.486909,
2000-06-18, 01:21:00,VALID,917.013,VALID,0,VALID,97.19,VALID,0,VALID,20.2052,VALID,93,VALID,0.0384115,
2000-06-18, 01:22:00,VALID,916.994,VALID,0,VALID,97.19,VALID,0,VALID,20.198,VALID,98,VALID,0.511161,
2000-06-18, 01:23:00,VALID,916.999,VALID,0,VALID,97.0845,VALID,0,VALID,20.1923,VALID,108,VALID,0.730785,
2000-06-18, 01:24:00,VALID,916.995,VALID,0,VALID,97.0145,VALID,0,VALID,20.1694,VALID,111,VALID,0.671664,
2000-06-18, 01:25:00,VALID,917.006,VALID,0,VALID,97.0056,VALID,-0.0679233,VALID,20.1704,VALID,119,VALID,0.618189,
2000-06-18, 01:26:00,VALID,916.999,VALID,0,VALID,96.9573,VALID,-0.0849042,VALID,20.1605,VALID,122,VALID,0.626603,
2000-06-18, 01:27:00,VALID,917,VALID,0,VALID,96.9344,VALID,-0.101885,VALID,20.1578,VALID,124,VALID,0.401116,
2000-06-18, 01:28:00,VALID,916.998,VALID,0,VALID,96.8696,VALID,-0.0849042,VALID,20.1384,VALID,113,VALID,0.589021,
2000-06-18, 01:29:00,VALID,916.977,VALID,0,VALID,96.8861,VALID,-0.101885,VALID,20.1158,VALID,110,VALID,0.559696,
2000-06-18, 01:30:00,VALID,916.979,VALID,0,VALID,97.0005,VALID,-0.0679233,VALID,20.0959,VALID,96,VALID,0.539844,
2000-06-18, 01:31:00,VALID,916.976,VALID,0,VALID,97.0476,VALID,-0.0679233,VALID,20.0857,VALID,80,VALID,0.597762,
2000-06-18, 01:32:00,VALID,916.969,VALID,0,VALID,97.0412,VALID,-0.0849042,VALID,20.0996,VALID,95,VALID,0.449747,
2000-06-18, 01:33:00,VALID,916.958,VALID,0,VALID,97.0717,VALID,-0.0679233,VALID,20.1026,VALID,103,VALID,0.0859375,
2000-06-18, 01:34:00,VALID,916.919,VALID,0,VALID,96.97,VALID,-0.0849042,VALID,20.0897,VALID,104,VALID,0.559375,
2000-06-18, 01:35:00,VALID,916.889,VALID,0,VALID,96.8479,VALID,-0.0849042,VALID,20.0641,VALID,98,VALID,0.833008,
2000-06-18, 01:36:00,VALID,916.852,VALID,0,VALID,96.839,VALID,-0.101885,VALID,20.0579,VALID,112,VALID,0.689303,
2000-06-18, 01:37:00,VALID,916.832,VALID,0,VALID,96.8251,VALID,-0.0849042,VALID,20.0541,VALID,112,VALID,0.54387,
2000-06-18, 01:38:00,VALID,916.818,VALID,0,VALID,96.8276,VALID,-0.101885,VALID,20.0651,VALID,121,VALID,0.224107,
2000-06-18, 01:39:00,VALID,916.816,VALID,0,VALID,96.8276,VALID,-0.101885,VALID,20.0511,VALID,121,VALID,0.204127,
2000-06-18, 01:40:00,VALID,916.814,VALID,0,VALID,96.8378,VALID,-0.0169808,VALID,20.0496,VALID,106,VALID,0.0853207,
2000-06-18, 01:41:00,VALID,916.823,VALID,0,VALID,96.7653,VALID,0,VALID,20.0472,VALID,64,VALID,0,
2000-06-18, 01:42:00,VALID,916.809,VALID,0,VALID,96.7767,VALID,0.0339617,VALID,20.0469,VALID,59,VALID,0,
2000-06-18, 01:43:00,VALID,916.802,VALID,0,VALID,96.7793,VALID,0.0339617,VALID,20.037,VALID,292,VALID,0,
2000-06-18, 01:44:00,VALID,916.798,VALID,0,VALID,96.7373,VALID,0,VALID,20.0176,VALID,240,VALID,0,
2000-06-18, 01:45:00,VALID,916.773,VALID,0,VALID,96.7144,VALID,0.0509425,VALID,20.0141,VALID,129,VALID,0,
2000-06-18, 01:46:00,VALID,916.752,VALID,0,VALID,96.7793,VALID,0,VALID,20.0114,VALID,130,VALID,0,
2000-06-18, 01:47:00,VALID,916.734,VALID,0,VALID,96.6788,VALID,0,VALID,19.9952,VALID,92,VALID,0.141426,
2000-06-18, 01:48:00,VALID,916.724,VALID,0,VALID,96.6356,VALID,0.0509425,VALID,20.0086,VALID,69,VALID,0.530048,
2000-06-18, 01:49:00,VALID,916.721,VALID,0,VALID,96.5911,VALID,0.0339617,VALID,20.0116,VALID,53,VALID,0.380357,
2000-06-18, 01:50:00,VALID,916.719,VALID,0,VALID,96.6801,VALID,0.0169808,VALID,20.0146,VALID,68,VALID,0.593164,
2000-06-18, 01:51:00,VALID,916.71,VALID,0,VALID,96.6369,VALID,0,VALID,20.0211,VALID,88,VALID,0.249219,
2000-06-18, 01:52:00,VALID,916.71,VALID,0,VALID,96.5682,VALID,0,VALID,20.0081,VALID,96,VALID,0.0605469,
2000-06-18, 01:53:00,VALID,916.685,VALID,0,VALID,96.661,VALID,0.0169808,VALID,19.9952,VALID,97,VALID,0,
2000-06-18, 01:54:00,VALID,916.678,VALID,0,VALID,96.6356,VALID,-0.0169808,VALID,19.9535,VALID,95,VALID,0,
2000-06-18, 01:55:00,VALID,916.652,VALID,0,VALID,96.6877,VALID,-0.0679233,VALID,19.9445,VALID,111,VALID,0,
2000-06-18, 01:56:00,VALID,916.633,VALID,0,VALID,96.7933,VALID,-0.101885,VALID,19.9448,VALID,119,VALID,0,
2000-06-18, 01:57:00,VALID,916.611,VALID,0,VALID,96.7996,VALID,-0.0849042,VALID,19.9483,VALID,120,VALID,0,
2000-06-18, 01:58:00,VALID,916.586,VALID,0,VALID,96.8034,VALID,-0.0679233,VALID,19.945,VALID,166,VALID,0,
2000-06-18, 01:59:00,VALID,916.537,VALID,0,VALID,96.6941,VALID,-0.0849042,VALID,19.9286,VALID,174,VALID,0,
2000-06-18, 02:00:00,VALID,916.495,VALID,0,VALID,96.6407,VALID,-0.101885,VALID,19.9192,VALID,211,VALID,0,
2000-06-18, 02:01:00,VALID,916.466,VALID,0,VALID,96.661,VALID,-0.101885,VALID,19.9067,VALID,226,VALID,0,
2000-06-18, 02:02:00,VALID,916.433,VALID,0,VALID,96.7653,VALID,-0.101885,VALID,19.8804,VALID,231,VALID,0,
2000-06-18, 02:03:00,VALID,916.393,VALID,0,VALID,96.9014,VALID,-0.101885,VALID,19.861,VALID,232,VALID,0,
2000-06-18, 02:04:00,VALID,916.37,VALID,0,VALID,97.0247,VALID,-0.0849042,VALID,19.8513,VALID,233,VALID,0,
2000-06-18, 02:05:00,VALID,916.341,VALID,0,VALID,97.1035,VALID,-0.101885,VALID,19.8252,VALID,224,VALID,0,
2000-06-18, 02:06:00,VALID,916.333,VALID,0,VALID,97.1264,VALID,-0.0679233,VALID,19.8123,VALID,230,VALID,0,
2000-06-18, 02:07:00,VALID,916.331,VALID,0,VALID,97.0807,VALID,-0.0849042,VALID,19.7765,VALID,230,VALID,0,
2000-06-18, 02:08:00,VALID,916.331,VALID,0,VALID,97.1188,VALID,-0.101885,VALID,19.7614,VALID,228,VALID,0,
2000-06-18, 02:09:00,VALID,916.305,VALID,0,VALID,97.1658,VALID,-0.101885,VALID,19.7417,VALID,212,VALID,0,
2000-06-18, 02:10:00,VALID,916.284,VALID,0,VALID,97.1048,VALID,0,VALID,19.7047,VALID,195,VALID,0,
2000-06-18, 02:11:00,VALID,916.244,VALID,0,VALID,97.1137,VALID,0.0169808,VALID,19.6657,VALID,220,VALID,0,
2000-06-18, 02:12:00,VALID,916.196,VALID,0,VALID,97.2841,VALID,0,VALID,19.6431,VALID,224,VALID,0,
2000-06-18, 02:13:00,VALID,916.157,VALID,0,VALID,97.4265,VALID,0.0169808,VALID,19.6262,VALID,203,VALID,0,
2000-06-18, 02:14:01,VALID,916.109,VALID,0,VALID,97.4761,VALID,0.0339617,VALID,19.6073,VALID,188,VALID,0,
2000-06-18, 02:15:00,VALID,916.07,VALID,0,VALID,97.5677,VALID,0.0339617,VALID,19.6142,VALID,170,VALID,0,
2000-06-18, 02:16:00,VALID,916.048,VALID,0,VALID,97.7279,VALID,0.0169808,VALID,19.6207,VALID,162,VALID,0,
2000-06-18, 02:17:01,VALID,916.021,VALID,0,VALID,97.836,VALID,0.0339617,VALID,19.6595,VALID,146,VALID,0,
2000-06-18, 02:18:00,VALID,916.003,VALID,0,VALID,97.7203,VALID,0.0169808,VALID,19.6632,VALID,112,VALID,0.467061,
2000-06-18, 02:19:00,VALID,915.977,VALID,0,VALID,97.4647,VALID,0.0169808,VALID,19.6724,VALID,113,VALID,0.80609,
2000-06-18, 02:20:00,VALID,915.967,VALID,0,VALID,97.3464,VALID,0,VALID,19.6818,VALID,118,VALID,0.903846,
2000-06-18, 02:21:00,VALID,915.954,VALID,0,VALID,97.101,VALID,0,VALID,19.6856,VALID,104,VALID,0.716747,
2000-06-18, 02:22:00,VALID,915.962,VALID,0,VALID,96.9993,VALID,0.0339617,VALID,19.6759,VALID,99,VALID,0.636607,
2000-06-18, 02:23:00,VALID,915.958,VALID,0,VALID,96.942,VALID,0.0509425,VALID,19.6687,VALID,98,VALID,0.627148,
2000-06-18, 02:24:00,VALID,915.961,VALID,0,VALID,96.8861,VALID,0.0169808,VALID,19.6721,VALID,88,VALID,0.602539,
2000-06-18, 02:25:00,VALID,915.952,VALID,0,VALID,96.7704,VALID,0.0169808,VALID,19.6781,VALID,94,VALID,0.661328,
2000-06-18, 02:26:00,VALID,915.948,VALID,0,VALID,96.689,VALID,0,VALID,19.6751,VALID,90,VALID,0.677576,
2000-06-18, 02:27:00,VALID,915.936,VALID,0,VALID,96.6458,VALID,0,VALID,19.6493,VALID,91,VALID,0.620226,
2000-06-18, 02:28:00,VALID,915.916,VALID,0,VALID,96.6737,VALID,0.0169808,VALID,19.6562,VALID,94,VALID,0.413616,
2000-06-18, 02:29:01,VALID,915.898,VALID,0,VALID,96.6763,VALID,-0.0169808,VALID,19.6336,VALID,95,VALID,0.213471,
2000-06-18, 02:30:00,VALID,915.898,VALID,0,VALID,96.6356,VALID,0.0169808,VALID,19.6242,VALID,95,VALID,0,
2000-06-18, 02:31:00,VALID,915.906,VALID,0,VALID,96.6102,VALID,-0.0169808,VALID,19.5983,VALID,95,VALID,0,
2000-06-18, 02:32:00,VALID,915.916,VALID,0,VALID,96.6674,VALID,0,VALID,19.5727,VALID,95,VALID,0,
2000-06-18, 02:33:01,VALID,915.926,VALID,0,VALID,96.7869,VALID,0,VALID,19.5499,VALID,95,VALID,0,
2000-06-18, 02:34:00,VALID,915.921,VALID,0,VALID,96.9548,VALID,0,VALID,19.5432,VALID,95,VALID,0,
2000-06-18, 02:35:01,VALID,915.923,VALID,0,VALID,97.0374,VALID,0,VALID,19.5399,VALID,95,VALID,0,
2000-06-18, 02:36:00,VALID,915.924,VALID,0,VALID,96.9929,VALID,-0.0169808,VALID,19.534,VALID,98,VALID,0,
2000-06-18, 02:37:00,VALID,915.919,VALID,0,VALID,96.8886,VALID,0,VALID,19.4979,VALID,117,VALID,0,
2000-06-18, 02:38:00,VALID,915.91,VALID,0,VALID,97.0272,VALID,-0.0339617,VALID,19.4917,VALID,127,VALID,0,
2000-06-18, 02:39:00,VALID,915.901,VALID,0,VALID,97.1595,VALID,0,VALID,19.4979,VALID,149,VALID,0,
2000-06-18, 02:40:00,VALID,915.908,VALID,0,VALID,97.2612,VALID,0,VALID,19.5012,VALID,139,VALID,0,
2000-06-18, 02:41:00,VALID,915.914,VALID,0,VALID,97.2625,VALID,-0.0169808,VALID,19.5337,VALID,136,VALID,0,
2000-06-18, 02:42:00,VALID,915.941,VALID,0,VALID,97.19,VALID,0,VALID,19.5238,VALID,135,VALID,0,
2000-06-18, 02:43:01,VALID,915.953,VALID,0,VALID,97.1035,VALID,0.0169808,VALID,19.5337,VALID,116,VALID,0,
2000-06-18, 02:44:00,VALID,915.975,VALID,0,VALID,96.937,VALID,-0.0169808,VALID,19.5171,VALID,110,VALID,0,
2000-06-18, 02:45:00,VALID,915.974,VALID,0,VALID,96.9446,VALID,0,VALID,19.5111,VALID,111,VALID,0,
2000-06-18, 02:46:00,VALID,915.963,VALID,0,VALID,97.0196,VALID,0,VALID,19.5044,VALID,120,VALID,0,
2000-06-18, 02:47:01,VALID,915.968,VALID,0,VALID,97.0272,VALID,0,VALID,19.5111,VALID,120,VALID,0,
2000-06-18, 02:48:00,VALID,915.966,VALID,0,VALID,97.0374,VALID,0,VALID,19.5143,VALID,120,VALID,0,
2000-06-18, 02:49:00,VALID,915.974,VALID,0,VALID,97.087,VALID,0,VALID,19.5176,VALID,127,VALID,0,
2000-06-18, 02:50:01,VALID,915.984,VALID,0,VALID,97.1506,VALID,0,VALID,19.5205,VALID,141,VALID,0,
2000-06-18, 02:51:00,VALID,916.008,VALID,0,VALID,97.2447,VALID,0,VALID,19.5305,VALID,141,VALID,0,
2000-06-18, 02:52:00,VALID,916.016,VALID,0,VALID,97.3121,VALID,-0.0169808,VALID,19.5563,VALID,141,VALID,0,
2000-06-18, 02:53:01,VALID,916.014,VALID,0,VALID,97.2867,VALID,0,VALID,19.5628,VALID,141,VALID,0,
2000-06-18, 02:54:00,VALID,916.014,VALID,0,VALID,97.2447,VALID,-0.0169808,VALID,19.5727,VALID,141,VALID,0,
2000-06-18, 02:55:00,VALID,916.001,VALID,0,VALID,97.176,VALID,-0.0169808,VALID,19.5695,VALID,164,VALID,0,
2000-06-18, 02:56:00,VALID,915.987,VALID,0,VALID,97.1557,VALID,0,VALID,19.5693,VALID,176,VALID,0,
2000-06-18, 02:57:00,VALID,915.968,VALID,0,VALID,97.0921,VALID,0.0169808,VALID,19.5727,VALID,178,VALID,0,
2000-06-18, 02:58:00,VALID,915.958,VALID,0,VALID,97.0972,VALID,0,VALID,19.5628,VALID,185,VALID,0,
2000-06-18, 02:59:01,VALID,915.952,VALID,0,VALID,97.0743,VALID,0,VALID,19.5531,VALID,187,VALID,0,
2000-06-18, 03:00:00,VALID,915.965,VALID,0,VALID,97.0311,VALID,0,VALID,19.5402,VALID,215,VALID,0,
2000-06-18, 03:01:01,VALID,915.973,VALID,0,VALID,97.0222,VALID,0,VALID,19.5176,VALID,262,VALID,0,
2000-06-18, 03:02:00,VALID,915.99,VALID,0,VALID,97.0616,VALID,0,VALID,19.5148,VALID,263,VALID,0,
2000-06-18, 03:03:00,VALID,916.008,VALID,0,VALID,97.0489,VALID,0,VALID,19.5044,VALID,263,VALID,0,
2000-06-18, 03:04:00,VALID,916.013,VALID,0,VALID,96.9751,VALID,0,VALID,19.5178,VALID,254,VALID,0,
2000-06-18, 03:05:00,VALID,916.024,VALID,0,VALID,96.9128,VALID,0,VALID,19.4947,VALID,197,VALID,0,
2000-06-18, 03:06:01,VALID,916.018,VALID,0,VALID,96.6699,VALID,0,VALID,19.4781,VALID,189,VALID,0,
2000-06-18, 03:07:01,VALID,916.029,VALID,0,VALID,96.586,VALID,0,VALID,19.5017,VALID,183,VALID,0,
2000-06-18, 03:08:01,VALID,916.025,VALID,0,VALID,96.6915,VALID,-0.0339617,VALID,19.4917,VALID,175,VALID,0,
2000-06-18, 03:09:00,VALID,916.038,VALID,0,VALID,96.7742,VALID,0,VALID,19.4654,VALID,175,VALID,0,
2000-06-18, 03:10:00,VALID,916.04,VALID,0,VALID,96.839,VALID,-0.0679233,VALID,19.4736,VALID,175,VALID,0,
2000-06-18, 03:11:00,VALID,916.05,VALID,0,VALID,96.9179,VALID,-0.0849042,VALID,19.4676,VALID,174,VALID,0,
2000-06-18, 03:12:00,VALID,916.051,VALID,0,VALID,97.0209,VALID,-0.101885,VALID,19.4572,VALID,176,VALID,0,
2000-06-18, 03:13:00,VALID,916.058,VALID,0,VALID,97.0679,VALID,-0.0509425,VALID,19.4574,VALID,180,VALID,0,
2000-06-18, 03:14:00,VALID,916.066,VALID,0,VALID,97.0603,VALID,-0.0679233,VALID,19.4507,VALID,175,VALID,0,
2000-06-18, 03:15:00,VALID,916.054,VALID,0,VALID,97.1455,VALID,-0.101885,VALID,19.4482,VALID,166,VALID,0,
2000-06-18, 03:16:01,VALID,916.052,VALID,0,VALID,97.1646,VALID,-0.101885,VALID,19.4316,VALID,167,VALID,0,
2000-06-18, 03:17:00,VALID,916.043,VALID,0,VALID,97.2154,VALID,-0.0679233,VALID,19.4254,VALID,164,VALID,0,
2000-06-18, 03:18:00,VALID,916.02,VALID,0,VALID,97.3134,VALID,-0.0849042,VALID,19.4157,VALID,163,VALID,0,
2000-06-18, 03:19:00,VALID,916.03,VALID,0,VALID,97.5995,VALID,-0.0849042,VALID,19.4286,VALID,162,VALID,0,
2000-06-18, 03:20:01,VALID,916.03,VALID,0,VALID,97.7571,VALID,-0.0679233,VALID,19.4445,VALID,155,VALID,0,
2000-06-18, 03:21:00,VALID,916.026,VALID,0,VALID,97.7559,VALID,-0.0679233,VALID,19.4251,VALID,155,VALID,0,
2000-06-18, 03:22:00,VALID,916.031,VALID,0,VALID,97.766,VALID,-0.0849042,VALID,19.4254,VALID,151,VALID,0,
2000-06-18, 03:23:01,VALID,916.02,VALID,0,VALID,97.78,VALID,-0.0849042,VALID,19.4092,VALID,134,VALID,0,
2000-06-18, 03:24:00,VALID,916.008,VALID,0,VALID,97.8144,VALID,-0.101885,VALID,19.4157,VALID,122,VALID,0,
2000-06-18, 03:25:00,VALID,916.016,VALID,0,VALID,97.7826,VALID,-0.0849042,VALID,19.4092,VALID,144,VALID,0,
2000-06-18, 03:26:00,VALID,916.01,VALID,0,VALID,97.6885,VALID,-0.0679233,VALID,19.3796,VALID,171,VALID,0,
2000-06-18, 03:27:00,VALID,915.999,VALID,0,VALID,97.7381,VALID,-0.0849042,VALID,19.3605,VALID,203,VALID,0,
2000-06-18, 03:28:00,VALID,915.993,VALID,0,VALID,97.9263,VALID,-0.101885,VALID,19.3739,VALID,206,VALID,0.678571,
2000-06-18, 03:29:00,VALID,915.982,VALID,0,VALID,98.075,VALID,-0.101885,VALID,19.3801,VALID,213,VALID,0.69668,
2000-06-18, 03:30:01,VALID,915.983,VALID,0,VALID,98.2124,VALID,-0.0849042,VALID,19.3905,VALID,212,VALID,0.636914,
2000-06-18, 03:31:00,VALID,915.999,VALID,0,VALID,98.3217,VALID,-0.0849042,VALID,19.3896,VALID,213,VALID,0.589648,
2000-06-18, 03:32:01,VALID,915.994,VALID,0,VALID,98.3853,VALID,-0.0849042,VALID,19.3995,VALID,206,VALID,0.626056,
2000-06-18, 03:33:00,VALID,915.991,VALID,0,VALID,98.4489,VALID,-0.0679233,VALID,19.3997,VALID,209,VALID,0.776476,
2000-06-18, 03:34:00,VALID,915.987,VALID,0,VALID,98.5341,VALID,-0.101885,VALID,19.4062,VALID,219,VALID,1.21429,
2000-06-18, 03:35:00,VALID,915.968,VALID,0,VALID,98.6524,VALID,-0.0679233,VALID,19.4355,VALID,221,VALID,1.03399,
2000-06-18, 03:36:00,VALID,915.952,VALID,0,VALID,98.6803,VALID,-0.101885,VALID,19.4288,VALID,215,VALID,1.06651,
2000-06-18, 03:37:00,VALID,915.933,VALID,0,VALID,98.721,VALID,-0.101885,VALID,19.4291,VALID,204,VALID,0.857572,
2000-06-18, 03:38:01,VALID,915.915,VALID,0,VALID,98.7617,VALID,-0.101885,VALID,19.4159,VALID,214,VALID,0.55649,
2000-06-18, 03:39:01,VALID,915.885,VALID,0,VALID,98.796,VALID,-0.101885,VALID,19.4157,VALID,202,VALID,0.644866,
2000-06-18, 03:40:00,VALID,915.846,VALID,0,VALID,98.8329,VALID,-0.0849042,VALID,19.4127,VALID,225,VALID,0.646587,
2000-06-18, 03:41:01,VALID,915.839,VALID,0,VALID,98.8342,VALID,-0.0849042,VALID,19.4161,VALID,212,VALID,0.847756,